Regional Weather Roundup
Issued by NWS

Home | Current Version | Previous Version | Text Only | Print | Product List | Glossary Off
Versions: 1 2 3 4 5 6 7 8 9 10 11 12 13 14 15 16 17 18 19 20 21 22 23 24 25 26 27 28 29 30 31 32 33 34 35 36 37 38 39 40 41 42 43 44 45 46 47 48 49 50

728
ASUS43 KMKX 290400
RWRWI

WISCONSIN REGIONAL WEATHER ROUNDUP
NATIONAL WEATHER SERVICE MILWAUKEE/SULLIVAN WI
1100 PM CDT SUN MAY 28 2017

NOTE: "FAIR" INDICATES FEW OR NO CLOUDS BELOW 12,000 FEET WITH NO
SIGNIFICANT WEATHER AND/OR OBSTRUCTIONS TO VISIBILITY.

WIZ001-002-006>008-014>016-023>028-290500-
NORTHWEST WISCONSIN

CITY           SKY/WX    TMP DP  RH WIND       PRES   REMARKS
SUPERIOR ARPT  NOT AVBL
ASHLAND        CLOUDY    52  49  89 SW7       29.63F
HAYWARD        CLEAR     53  45  74 VRB3      29.67S
SIREN          PTCLDY    53  49  86 CALM      29.69
CUMBERLAND     PTCLDY    54  46  76 W10       29.70
RICE LAKE      PTCLDY    55  51  88 SW6       29.72R
CHETEK         MOCLDY    52  52  99 W5        29.71R
LADYSMITH      CLEAR     52  50  92 SW6       29.71S
EAU CLAIRE     NOT AVBL
MENOMONIE      TSTM      56  50  82 SW3       29.73R
NEW RICHMOND   CLOUDY    52  49  89 S3        29.72F
OSCEOLA        MOCLDY    53  53 100 SW8       29.74R
$$

WIZ003>005-009-010-017-018-290500-
NORTH CENTRAL WISCONSIN

CITY           SKY/WX    TMP DP  RH WIND       PRES   REMARKS
MANITOWISH WTR MOCLDY    50  50 100 CALM      29.65F
ARBOR VITAE    FOG       50  49  95 CALM      29.66S VSB 3/4
WOODRUFF       FOG       50  49  95 CALM      29.66S VSB 3/4
RHINELANDER    MOCLDY    51  48  89 W3        29.68R FOG
EAGLE RIVER    PTCLDY    49  49  99 CALM      29.65F
LAND O LAKES   MOCLDY    50  50 100 CALM      29.67S
PHILLIPS       CLOUDY    52  50  92 SW7       29.67R
TOMAHAWK       CLEAR     50  46  86 CALM      29.69R
MEDFORD        CLEAR     51  47  86 SW5       29.69S
MERRILL        CLEAR     53  49  86 W5        29.69S
$$

WIZ029-030-035-036-043>047-290500-
CENTRAL WISCONSIN

CITY           SKY/WX    TMP DP  RH WIND       PRES   REMARKS
WAUSAU         CLEAR     55  47  74 W8        29.68S
MOSINEE        CLEAR     50  48  93 SW6       29.71S
MARSHFIELD     CLEAR     51  48  89 W6        29.70S
STEVENS POINT  CLEAR     55  47  73 SW6       29.71S
WAUPACA        CLOUDY    64  47  55 CALM      29.71F
WAUTOMA        CLEAR     57  49  74 W3        29.73R
WISC RAPIDS    CLEAR     55  48  77 W5        29.72F
CAMP DOUGLAS   NOT AVBL
$$

WIZ011>013-019>022-031-037>040-048>050-290500-
NORTHEAST WISCONSIN

CITY           SKY/WX    TMP DP  RH WIND       PRES   REMARKS
ANTIGO         CLOUDY    53  48  83 W6        29.69S
SHAWANO        CLOUDY    62  48  60 SW3       29.69S
OCONTO         PTCLDY    55  53  90 CALM      29.66F
STURGEON BAY   PTCLDY    54  53  97 S5        29.68S
GREEN BAY      CLEAR     60  49  66 W9        29.69S
MANITOWOC      NOT AVBL
APPLETON       PTCLDY    61  43  51 NW8       29.70R
CLINTONVILLE   MOCLDY    61  45  55 W5        29.69F
OSHKOSH        MOCLDY    62  47  57 SW3       29.70S
$$

WIZ032>034-041-042-053>061-290500-
SOUTHWEST WISCONSIN

CITY           SKY/WX    TMP DP  RH WIND       PRES   REMARKS
LA CROSSE      CLOUDY    60  49  66 CALM      29.72S
SPARTA         CLEAR     55  48  75 CALM      29.74S
VIROQUA        CLOUDY    60  42  51 CALM      29.75S
BOSCOBEL       CLEAR     55  49  80 W3        29.75S
PRAIRIE DU CHI CLEAR     57  48  72 E3        29.75S
PLATTEVILLE    CLEAR     62  47  59 SW5       29.77S
$$

WIZ056-057-062-063-064-067-068-290500-
SOUTH CENTRAL WISCONSIN

CITY           SKY/WX    TMP DP  RH WIND       PRES   REMARKS
REEDSBURG      CLEAR     58  46  64 CALM      29.73S
BARABOO/DELLS  CLEAR     57  44  60 SW3       29.73F
LONE ROCK      NOT AVBL
MINERAL POINT  CLEAR     63  43  48 SW5       29.77R
MADISON        PTCLDY    60  48  64 CALM      29.73F
MIDDLETON      CLEAR     56  50  79 CALM      29.75S
WATERTOWN      CLEAR     55  50  82 CALM      29.74R
MONROE         CLEAR     61  46  59 SW6       29.77S
JANESVILLE     CLEAR     61  50  67 CALM      29.75F
$$

WIZ051-052-058>065-066-070>072-290500-
SOUTHEAST WISCONSIN

CITY           SKY/WX    TMP DP  RH WIND       PRES   REMARKS
MILWAUKEE      CLEAR     66  48  52 SW8       29.73S
WAUKESHA       CLEAR     59  45  58 SW5       29.75
MILWAUKEE/TIMM   N/A     59  45  58 CALM      29.74S
RACINE         CLEAR     61  47  59 W5        29.75F
KENOSHA        CLEAR     56  48  74 SW7       29.74F
FOND DU LAC    CLEAR     60  46  59 SW6       29.71S
SHEBOYGAN      MOCLDY    59  52  77 SW6       29.70F
WEST BEND      CLEAR     59  48  67 SW5       29.73S
JUNEAU         CLEAR     59  49  69 CALM      29.74S
$$

LSZ147-162-290500-
LAKE SUPERIOR

STATION/POSITION TIME  TEMP    WIND        PRES    WAVE
                       AIR SEA DIR/SP/G            HT/PER
                 (UTC) (F)     (DEG/KT/KT) (MB)    (FT/S)
W MID LAKE BUOY  0250   42 37  220/ 10/ 12 1003.0F   0
DEVILS ISLAND    0300   50     230/ 10/ 10 1003.3F
PORT WING        0330   56     230/  7/ 12 1003.7S
SAXON HARBOR     0340   53     210/  3/  4 1003.0F
$$

LMZ867-665-643>646-290500-
LAKE MICHIGAN

STATION/POSITION TIME  TEMP    WIND        PRES    WAVE
                       AIR SEA DIR/SP/G            HT/PER
                 (UTC) (F)     (DEG/KT/KT) (MB)    (FT/S)
CHAMBERS ISLAND  0340   51      CALM  /  4 1004.1F
N MID LAKE BUOY  0250   46 42  160/  6/  6 1005.5S   0
NORTHPORT PIER   0340   50     170/  6/  9 1004.4S
KEWAUNEE LAKESHO 0330   61      20/  5/  6 1004.7S
SHEBOYGAN LAKESH 0300   66     250/  5/  5 1005.6R
PORT WASHINGTON  0330   60     260/  4/  4 1007.1F
ATWATER BUOY     0209   64     260/  8/  8 1006.8R
MILWAUKEE LAKESH 0340   67     240/  5/  6   N/A
S MID LAKE BUOY  0250   51 49  230/ 10/ 12 1007.2R   0
KENOSHA   LAKESH 0300   68     260/  5/  8 1007.5
$$

TC  - TEMPERATURE IN CELSIUS
VSB - VISIBILITY IN STATUTE MILES
WCI - WIND CHILL INDEX
HX  - HEAT INDEX





USA.gov is the U.S. government's official web portal to all federal, state and local government web resources and services.